Flag for Germany Weather past 2 weeks in Bernau bei Berlin, Brandenburg, Germany

Now
49 °F

Rain. Overcast.


Feels Like: 44 °F
Forecast: 48 / 50 °F
Wind: 14 mph from West

Location: Berlin-Tegel

Current Time: Dec 22, 2014 at 11:56:04 AM

Latest Report: Dec 22, 2014 at 11:00 AM


Visibility: 8 mi

Pressure: 29.81 "Hg

Humidity: 93%

Dew point: 47 °F

Location of Bernau bei BerlinLocation

Historic Weather in Bernau bei Berlin — Graph

°F

Bernau bei Berlin temperature yesterday

Maximum temperature yesterday: 44 °F (at 10:00 PM)
Minimum temperature yesterday: 39 °F (at 2:00 AM)
Average temperature yesterday: 42 °F

Past Weeks' High & Low Weather Summary

 TemperatureHumidityPressure
High53 °F (Dec 19, 1:00 AM)99% (Dec 7, 10:00 AM)30.39 "Hg (Dec 7, 10:00 AM)
Low29 °F (Dec 9, 5:00 AM)69% (Dec 12, 5:00 PM)29.35 "Hg (Dec 12, 9:00 PM)
Average41 °F88%29.89 "Hg
* Reported Dec 7 10:00 AM — Dec 22 10:00 AM, Bernau bei Berlin, Weather by CustomWeather, © 2014

Note: Actual official high and low records may vary slightly from our data, if they occured in-between our weather recording intervals... More about our weather records

Advertising

Bernau bei Berlin weather history for previous 24 hours

 ConditionsComfort  
Time TempWeatherWind HumidityBarometerVisibility
10:00 AM
Dec 22
49 °FRain. Low clouds.13 mph94%29.82 "Hg8 mi
9:00 AM48 °FRain. Low clouds.13 mph93%29.83 "Hg6 mi
8:00 AM48 °FRain. Low clouds.12 mph93%29.83 "Hg6 mi
7:00 AM48 °FLight rain. Overcast.10 mph92%29.83 "Hg9 mi
6:00 AM47 °FLight rain. Low clouds.12 mph93%29.83 "Hg12 mi
5:00 AM46 °FLight rain. Low clouds.12 mph95%29.84 "Hg6 mi
4:00 AM47 °FRain. Overcast.12 mph91%29.86 "Hg7 mi
3:00 AM47 °FOvercast.12 mph86%29.88 "Hg25 mi
2:00 AM45 °FLight rain. Overcast.10 mph92%29.90 "Hg16 mi
1:00 AM44 °FLight rain. Overcast.9 mph92%29.94 "Hg16 mi
12:00 AM44 °FLight rain. Overcast.10 mph88%29.96 "Hg16 mi
11:00 PM
Dec 21
44 °FLight rain. Overcast.10 mph88%30.00 "Hg19 mi
10:00 PM44 °FOvercast.10 mph85%30.03 "Hg19 mi
9:00 PM44 °FOvercast.10 mph85%30.05 "Hg19 mi
8:00 PM44 °FLight rain. Overcast.10 mph81%30.08 "Hg19 mi
7:00 PM43 °FLight rain. Overcast.8 mph85%30.11 "Hg17 mi
6:00 PM43 °FLight rain. Overcast.8 mph84%30.12 "Hg19 mi
5:00 PM43 °FOvercast.7 mph86%30.14 "Hg19 mi
4:00 PM43 °FLight rain. Overcast.8 mph86%30.16 "Hg8 mi
3:00 PM44 °FOvercast.6 mph83%30.19 "Hg14 mi
2:00 PM44 °FOvercast.8 mph82%30.21 "Hg16 mi
1:00 PM43 °FOvercast.8 mph84%30.22 "Hg12 mi
12:00 PM43 °FOvercast.9 mph85%30.22 "Hg14 mi
11:00 AM41 °FOvercast.8 mph87%30.23 "Hg12 mi
Weather by CustomWeather, © 2014

See weather overviewHow to use our weather pages